Showing default

COSMOS 2296 (GLONASS), 23397

Orbit data source: Space-Track

COSMOS 2296 (GLONASS), 23397 is a payload satellite owned by VKS (CIS) in MEO that was launched on Sun, 20 Nov 1994 UTC via a PROTON-K/DM-2 launch vehicle from the Tyuratam Missile And Space Complex (TTMTR). Payload-class satellites include a variety of spacecraft equipped with specific instruments for various scientific and technological missions. These include communications satellites like Starlink; space stations such as the ISS; scientific satellites like the Hubble; Earth observation satellites from companies like Planet Labs, Umbra, and HawkEye 360; GPS; miniature CubeSats for education and research; and military/defense satellites.

Loading next visibility...
Identifier
23397, 1994-076B
Orbit
MEO
Country
Flag of CISCIS
Related business
Manufacturer
Polyot
Mission
Non-operational Defense Navigation
Bus & Motor
URAGAN, Unknown motor
Mass
1,300 kg wet, ~1,200 kg dry
Launch date (UTC)
1994-11-20 (32 years ago)
Launch vehicle
PROTON-K/DM-2
Launch site
Tyuratam Missile And Space Complex (TTMTR)
Object type
Payload
Rocket body
Debris
Shape & HBR
Cyl + 2 Pan, 4.2 m
Radar Cross Section
14.707 m², Large (>1 m²)

Expand to show TLE details & history
Last TLE update: 3 days ago

TLE from 3 days ago
0 COSMOS 2296 (GLONASS)
1 23397U 94076B   26170.36227976 -.00000037  00000-0  00000-0 0  9999
2 23397  64.8434  68.9044 0010095 258.4526 274.7840  2.13099436245531
Epoch: 2026-06-19T08:41Z
TLE epoch observation values (Epoch: 2026-06-19T08:41:40.971Z)
Latitude
6.21884°
Longitude
-152.02146°
Altitude
19,127.935 km
Speed
3.954 km/s
True Right ascension
16h 23m 57s
True Declination
6° 12' 31"
Sunlit
Object was in daylight at epoch
Visualization orbit readout
Latitude
Unknown
Longitude
Unknown
Altitude
Unknown
Speed
Unknown
Apparent Right ascension
Unknown
Apparent Declination
Unknown
Sunlit
N/A
Visualization observer readout
Local Sidereal Time
23:07:57
Azimuth
Unknown
Elevation
Unknown
Doppler factor
Unknown
Orbital elements
Apogee altitude
19,155.463 km
Perigee altitude
19,103.962 km
Semi-major axis
25,507.849 km
Eccentricity
0.00101
Inclination
64.8434°
RAAN
68.9044°
Arg. of periapsis
258.4526°
True anomaly
274.66871°
Mean anomaly
274.784°
Eccentric anomaly
274.72636°
Mean motion
0.53276 °/min
Orbital period
675.73 mins
BSTAR
0
Loading maneuver chart data...
Computing Atmospheric mass density...
Loading historical data...
Loading historical data...
Loading historical data...
Loading historical data...
Loading historical data...
Loading historical data...
Loading historical data...

Documentation

Showing up to 5 results
|